Weather in Naracoorte

Australia     36°57′27″S   140°44′05″E
temp.,
°C
wind,
m/s
gust,
m/s
humid.,
%
clouds,
%
prec.,
mm/h
press.,
hPa
HPBL,
m
19 september, sun
sun1900:30+7nnw5139210 0.0 1018312
03:30+7nnw6159266 0.0 1017486
06:30+8nnw7158899 0.0 1017728
09:30+13nw91575100 0.1 10171270
12:30+14nw101573100 0.0 10151281
15:30+14wnw101882100 0.8 10131605
18:30+12w81497100 4.2 1014819
21:30+10w61293100 6.2 1015748
20 september, mon
mon2000:30+8w61488100 0.2 1015712
03:30+7w6138472 0.4 1014693
06:30+6w4149470 0.4 1016552
09:30+10wsw813847 1.3 10181598
12:30+10wsw10157369 1.4 10181916
15:30+9sw9157071 2.6 10181932
18:30+5sw7158565 0.8 1021698
21:30+2sw4129155 0.9 1024294
21 september, tue
tue2100:30+3sw412915 0.0 1026270
03:30+3sw38895 0.1 1026131
06:30+3sw34895 0.0 102876
09:30+11ssw6956100 0.0 10301810
12:30+12sw6760100 0.0 10301519
15:30+11sw5873100 0.1 1030941
18:30+10w4977100 0.0 1030687
21:30+11w51184100 0.0 1030640
22 september, wed
wed2200:30+11wsw51090100 0.1 1029689
03:30+10wsw3990100 0.1 1028463
06:30+10w3888100 0.0 1029331
09:30+12w4778100 0.1 1029883
12:30+14w5772100 0.0 10271103
15:30+13w5876100 0.1 10261098
18:30+12w4977100 0.1 1026551
21:30+12w5975100 0.1 1025670
23 september, thu
thu2300:30+12wnw5979100 0.1 1023697
03:30+12wnw6969100 0.1 10211026
06:30+12nw510720 0.0 1020908
09:30+15wnw810680 0.0 10201029
12:30+17wnw811570 0.0 10181315
15:30+16wnw811600 0.0 10161252
18:30+11wnw510870 0.0 1016299
21:30+9nw4129712 0.0 1015291